Location: Del Amo
(33.8464°N, 118.2104°W)
Time: 20:29:03
(UTC+00:00)

Vanguard 1 - Pass Details

Date: 15 September 2024
Orbit: 648 x 3825 km, 34.3° (Epoch: 13 October)

Event Time Altitude Azimuth Distance (km) Brightness Sun altitude
Rises 02:36:51 0° 275° (W) 3,137 15.1 -8.5°
Reaches altitude 10° 02:39:53 10° 256° (WSW) 2,074 13.0 -9.1°
Maximum altitude 02:43:04 19° 210° (SSW) 1,527 11.3 -9.8°
Drops below altitude 10° 02:46:20 10° 164° (SSE) 2,122 11.5 -10.4°
Enters shadow 02:48:44 - 149° (SSE) 2,949 12.1 -10.9°
